Location: Big Meadow
(36.7100°N, 118.8650°W)
Time: 17:18:36
(UTC-07:00)

Daily predictions for brighter satellites

Satellite Brightness Start Highest point End
(mag) Time Altitude Azimuth Time Altitude Azimuth Time Altitude Azimuth
Atlas Centaur 2 2.0 20:42:17 10° WSW 20:45:36 30° S 20:48:45 10° ESE
ERS-1 Rocket 4.3 20:42:50 10° ESE 20:46:44 23° ENE 20:50:39 10° NNE
Lacrosse 4 Rocket 2.2 20:44:07 10° SW 20:48:15 60° WNW 20:52:32 10° NNE
SL-24 DEB 4.3 20:43:52 10° S 20:48:36 87° E 20:53:24 10° N
USA 234 3.8 20:43:36 10° ENE 20:49:30 35° SE 20:55:21 10° S
Cosmos 2227 Rocket 2.5 20:45:13 10° SSW 20:50:52 78° WNW 20:56:33 10° NNE
Cosmos 1184 Rocket 3.4 20:48:46 10° SSE 20:51:52 37° E 20:55:00 10° NNE
Meteor 1-24 Rocket 3.8 20:48:12 10° S 20:54:06 72° E 20:59:53 10° NNE
Meteor 1-16 Rocket 4.4 20:48:50 10° N 20:54:41 89° W 21:00:37 10° S
COSMOS 2428 4.5 20:52:10 10° NW 20:57:07 30° WSW 21:02:01 10° SSW
Cosmos 1727 Rocket 4.1 20:51:01 10° S 20:57:10 61° E 21:03:24 10° NNE
Cosmos-2242 4.0 20:54:20 10° NNW 20:58:27 47° W 21:02:33 10° SSW
SL-19 R/B 4.4 20:55:04 10° SSE 21:00:50 88° ENE 21:06:26 10° NNW
SEDSat Delta rocket 4.3 20:57:08 10° WSW 21:00:55 26° SSW 21:04:21 10° SE
Cosmos 2098 Rocket 4.5 20:53:49 10° N 21:01:23 83° E 21:08:46 10° S
SL-16 R/B 3.0 20:56:53 10° N 21:02:06 36° ENE 21:07:03 11° SE
Tiangong 1 2.1 20:59:45 10° W 21:02:27 42° NNW 21:05:08 10° NE
In-Cosmos 22 4.3 20:58:59 10° S 21:04:34 63° E 21:10:16 10° NNE
Spot 2 Rocket 4.5 20:59:49 10° S 21:04:39 47° W 21:09:32 10° NNW
SAR-Lupe-4 3.7 21:07:19 10° SSE 21:10:49 57° ENE 21:14:20 10° N
Aureole 2 Rocket 3.4 21:07:49 10° NNW 21:11:48 54° WSW 21:15:30 10° S
NOSS 3-4 (A) 3.9 21:07:05 10° NNW 21:14:13 77° ENE 21:21:10 13° SE
NOSS 3-4 (C) 3.9 21:07:11 10° NNW 21:14:19 76° ENE 21:21:15 13° SE
Okean 3 Rocket 3.8 21:15:22 10° S 21:19:45 54° E 21:24:08 10° NNE
Meteor 1-29 3.0 21:16:32 10° N 21:19:58 82° WNW 21:23:25 10° SSW
Cosmos 2219 Rocket 3.7 21:15:08 10° NW 21:20:10 34° WSW 21:25:09 10° SSW
Meteor 2-1 Rocket 4.3 21:14:56 10° N 21:20:47 79° E 21:26:29 10° SSE
USA 186 4.0 21:19:58 10° SW 21:21:21 14° W 21:22:41 10° WNW
Cosmos 2221 2.9 21:17:59 10° N 21:22:14 47° E 21:25:33 16° SSE
Cosmos 2333 Rocket 3.4 21:17:32 10° NW 21:22:47 40° WSW 21:27:58 10° S
Envisat 3.9 21:24:17 10° S 21:29:09 47° W 21:34:03 10° NNW
SAR-Lupe-1 4.0 21:27:14 14° SSE 21:30:16 90° ENE 21:33:53 10° NNW
NOAA 11 4.3 21:27:58 15° SSE 21:32:21 58° ENE 21:37:41 10° N
SL-8 R/B 4.4 21:27:58 10° WNW 21:32:30 44° SW 21:35:46 17° SSE
Cosmos 1242 Rocket 3.3 21:31:28 10° N 21:34:56 37° ENE 21:36:40 23° SE
Cosmos 1766 Rocket 4.1 21:35:44 20° SSE 21:38:16 39° E 21:42:18 10° NNE
USA 245 4.0 21:40:57 24° ESE 21:42:04 31° ENE 21:45:29 10° N
Resurs 01 Rocket 4.4 21:41:04 10° WSW 21:43:11 13° W 21:45:18 10° WNW
Cosmos 1939 Rocket 4.4 21:40:09 10° SSW 21:43:44 33° W 21:47:25 10° NNW
Cosmos 1570 Rocket 4.0 21:40:33 10° NNW 21:45:51 69° ENE 21:49:10 23° SSE
Meteor 1-21 Rocket 4.2 21:40:36 10° S 21:46:17 72° E 21:51:53 10° NNE
Cosmos 2297 Rocket 4.2 21:46:43 10° WSW 21:51:40 30° WNW 21:56:37 10° N
H-2A R/B 4.2 21:54:28 12° E 21:55:35 13° ENE 21:57:32 10° NE
Cosmos 1867 3.7 21:51:37 10° SW 21:57:02 76° WNW 22:02:31 10° NNE
Cosmos 1300 3.9 21:56:20 10° NNE 21:59:33 25° ENE 22:00:02 25° E
MetOp-B 4.1 21:58:34 22° SSE 22:02:08 87° WSW 22:07:31 10° NNW
YAOGAN 6 4.5 21:59:55 10° SSW 22:02:59 26° W 22:06:08 10° NW
Cosmos 2263 Rocket 3.3 22:03:21 22° ESE 22:03:34 22° E 22:07:47 10° NE
Cosmos 1726 2.6 22:04:06 10° N 22:07:36 41° E 22:08:04 39° E
Cosmos 1459 Rocket 4.0 22:03:32 10° N 22:09:50 82° W 22:14:09 21° S
SPOT 5 2.8 22:07:35 31° SSE 22:09:54 82° ENE 22:14:56 10° N
Cosmos 2100 Rocket 4.2 22:03:53 10° N 22:10:11 76° W 22:14:53 19° S
Cosmos 2061 Rocket 4.0 22:05:02 10° N 22:11:27 88° W 22:15:41 23° S
ATLAS 5 CENTAUR R/B 3.4 22:07:46 10° WSW 22:12:02 35° NW 22:16:38 10° NNE
OAO 1 Rocket 4.4 22:07:59 10° WSW 22:13:19 69° S 22:16:37 23° E
Lacrosse 5 3.0 22:10:13 10° NNW 22:14:51 34° NE 22:17:19 22° E
Cosmos 2123 Rocket 3.9 22:15:14 26° S 22:18:49 70° E 22:24:59 10° NNE
Cosmos 468 Rocket 4.1 22:15:07 10° N 22:20:11 60° ENE 22:21:53 39° SE
Cosmos 371 Rocket 4.0 22:17:22 10° N 22:21:53 38° ENE 22:23:02 33° E
Cosmos 2237 Rocket 4.5 22:18:39 10° WNW 22:22:11 17° W 22:25:43 10° SW
Cosmos 2173 Rocket 4.3 22:17:03 10° NNW 22:23:08 64° W 22:27:22 21° SSW
H-2A R/B 2.1 22:22:03 37° SSE 22:24:14 78° ENE 22:29:39 10° N
ERS-1 Rocket 4.2 22:21:43 16° SSW 22:25:15 36° W 22:29:54 10° NNW
Cosmos 1603 3.7 22:23:38 10° NNW 22:29:17 68° ENE 22:31:12 41° SE
Nimbus 7 Rocket 4.4 22:23:37 10° NNE 22:29:40 84° WNW 22:34:04 19° SSW
USA 234 3.8 22:26:13 10° NE 22:32:38 59° NW 22:39:00 10° WSW
Cosmos 1455 4.5 22:31:17 10° NE 22:32:48 14° ENE 22:32:48 14° ENE
Atlas Centaur 2 3.3 22:31:04 10° WSW 22:31:56 14° SW 22:31:56 14° SW
Cosmos 220 Rocket 3.9 22:34:08 49° S 22:35:17 83° ESE 22:39:42 10° NNE
Cosmos 1818 4.2 22:30:22 10° NW 22:35:34 47° WSW 22:37:34 32° SSW
Tiangong 1 3.1 22:36:09 10° NW 22:38:27 22° N 22:39:04 20° NNE
Landsat 7 3.7 22:38:42 54° SSE 22:39:46 78° ENE 22:44:32 10° N
Milstar 3 Cent rocket 4.4 22:33:13 10° WSW 22:41:17 42° S 22:47:28 30° SSE
Cosmos 1725 Rocket 3.9 22:38:33 10° N 22:44:49 88° W 22:47:15 40° S
deb Chang Zheng 4 4.1 22:40:38 10° NNE 22:44:23 43° E 22:44:23 43° E
SL-16 R/B 3.7 22:41:18 10° NW 22:46:01 28° WSW 22:48:57 18° SW
ARGOS 4.1 22:43:20 24° SSW 22:46:05 42° W 22:51:12 10° NNW
Cosmos 1943 3.7 22:40:59 10° N 22:46:24 45° ENE 22:47:48 38° E
Sakura Rocket 4.3 22:42:41 10° WSW 22:49:06 39° S 22:49:06 39° S
Cosmos 1356 4.4 22:51:47 41° NNE 22:51:47 41° NNE 22:54:14 10° NNE
Cosmos 1703 4.1 22:51:37 39° ENE 22:51:37 39° ENE 22:54:37 10° NNE
Cosmos 2058 3.1 22:51:16 59° ENE 22:51:16 59° ENE 22:55:05 10° NNE
CZ-4C R/B 4.3 22:54:51 11° ENE 22:54:51 11° ENE 22:55:21 10° ENE
CZ-4B R/B 4.0 22:48:11 10° NNE 22:53:06 42° E 22:53:06 42° E
CZ-4 R/B 4.0 22:48:58 10° NNE 22:53:34 51° E 22:53:34 51° E
Terra 1.7 22:54:08 67° SE 22:54:42 77° ENE 22:59:28 10° N
DMSP B5D2-2 4.4 22:54:34 10° N 22:59:44 63° WNW 23:01:57 34° SW
Cosmos 1500 Rocket 3.7 22:59:25 63° SW 22:59:59 72° W 23:04:27 10° N
ERBS 4.0 22:58:44 10° NNW 23:01:13 29° NNE 23:01:13 29° NNE
Cosmos 1354 Rocket 4.0 23:06:55 62° ESE 23:06:55 62° ESE 23:12:04 10° NNE
Meteor 1-11 4.3 23:05:09 45° SSW 23:07:02 77° W 23:12:53 10° N
Cosmos 2151 3.0 23:07:09 71° W 23:07:14 71° W 23:11:33 10° N
CARTOSAT-1 3.6 23:09:48 69° W 23:09:48 69° W 23:14:05 10° NNW
Cosmos 332 Rocket 4.3 23:06:41 10° NNW 23:11:25 51° WSW 23:11:57 48° SW
RESURS DK-1 3.1 23:07:28 10° NW 23:11:11 46° W 23:11:11 46° W
Cosmos 1814 Rocket 4.3 23:12:46 10° NNW 23:17:59 55° WSW 23:18:38 51° SW
Spot 4 3.9 23:18:33 68° ENE 23:18:33 68° ENE 23:23:24 10° N
Cosmos 1805 Rocket 4.4 23:19:58 40° NE 23:19:58 40° NE 23:23:05 10° NNE
CZ-2C R/B 4.1 23:15:33 10° NE 23:18:36 22° ENE 23:18:36 22° ENE
Meteor 1-27 4.3 23:18:25 10° NNW 23:24:13 70° W 23:25:09 59° SSW
Cosmos 304 Rocket 4.2 23:23:04 10° N 23:27:27 53° NE 23:27:27 53° NE
H-2A R/B 2.7 23:31:35 49° W 23:31:35 49° W 23:35:21 10° NNW
Cosmos 841 Rocket 3.5 23:26:05 10° NNW 23:31:18 70° WSW 23:31:24 70° WSW
SME Rocket 3.7 23:32:35 47° NNE 23:32:35 47° NNE 23:35:52 10° N
Cosmos 1626 3.6 23:34:58 35° NW 23:34:58 35° NW 23:37:42 10° N
Cosmos 1763 Rocket 3.9 23:29:41 10° NNW 23:34:35 48° WSW 23:34:39 48° WSW
Cosmos 1151 Rocket 4.2 23:34:45 10° NNW 23:38:34 35° W 23:38:34 35° W
Cosmos 2233 Rocket 4.5 23:33:11 10° NNW 23:39:09 51° W 23:40:31 43° SW
Cosmos 2263 Rocket 3.1 23:44:59 30° WSW 23:47:08 43° WNW 23:52:27 10° N
